Tracking 28091 objects as of 30-Sep-2023
HD Live streaming from Space Station
objects crossing your sky now

STARLINK-30136

Track STARLINK-30136 now!
10-day predictions
STARLINK-30136 is classified as:


NORAD ID: 56844
Int'l Code: 2023-079X
Perigee: 565.3 km
Apogee: 567.1 km
Inclination: 43.0 °
Period: 95.8 minutes
Semi major axis: 6937 km
RCS: Unknown
Launch date: June 4, 2023
Source: United States (US)
Launch site: AIR FORCE EASTERN TEST RANGE (AFETR)
Your satellite tracking list
Your tracking list is empty




NASA's NSSDC Master Catalog

Two Line Element Set (TLE):
1 56844U 23079X   23273.11134786  .00000379  00000-0  43094-4 0  9999
2 56844  42.9997 272.2157 0001328 259.8596 100.2096 15.02547555 18762
Source of the keplerian elements: AFSPC